EW4224 Weather Reports


time (UTC)temp
C
wind
direction
speed
KPH
gust
KPH
rain 1hr
cm
rain 24hr
cm
rain mn
cm
humidity
%
barometer
mb
20260504214503 26 229 6.4 17.7 0.00 0.00 0.00 34 1027.8
20260504213603 26 215 9.7 30.6 0.00 0.00 0.00 34 1028.0
20260504212703 26 207 11.3 30.6 0.00 0.00 0.00 34 1028.1
20260504211803 26 211 12.9 30.6 0.00 0.00 0.00 35 1028.3
20260504210903 26 222 12.9 30.6 0.00 0.00 0.00 34 1028.5
20260504210004 26 214 11.3 29.0 0.00 0.00 0.00 34 1028.5
20260504205403 26 213 11.3 30.6 0.00 0.00 0.00 34 1028.5
20260504204503 26 210 14.5 30.6 0.00 0.00 0.00 35 1029.1
20260504203813 26 206 12.9 24.1 0.00 0.00 0.00 35 1028.9
20260504202703 26 212 9.7 27.4 0.00 0.00 0.00 36 1028.9
20260504201803 26 218 8.0 20.9 0.00 0.00 0.00 35 1029.0
20260504200903 26 215 11.3 27.4 0.00 0.00 0.00 34 1029.2
20260504200212 27 221 8.0 20.9 0.00 0.00 0.00 31 1029.2
20260504195403 26 231 9.7 22.5 0.00 0.00 0.00 31 1029.3
20260504194503 27 229 9.7 24.1 0.00 0.00 0.00 30 1029.5
20260504193603 27 224 8.0 27.4 0.00 0.00 0.00 32 1029.5
20260504192914 26 247 9.7 27.4 0.00 0.00 0.00 31 1029.7
20260504191803 26 238 6.4 19.3 0.00 0.00 0.00 32 1029.8
20260504190903 26 255 9.7 22.5 0.00 0.00 0.00 30 1030.0
20260504190003 26 278 11.3 22.5 0.00 0.00 0.00 29 1029.9
20260504185614 26 248 9.7 25.7 0.00 0.00 0.00 29 1029.9
20260504184503 26 250 9.7 25.7 0.00 0.00 0.00 30 1030.0
20260504183603 26 225 9.7 27.4 0.00 0.00 0.00 30 1030.0
20260504182703 26 230 9.7 27.4 0.00 0.00 0.00 33 1030.0
20260504182013 25 212 11.3 27.4 0.00 0.00 0.00 35 1030.3
20260504180903 25 212 11.3 29.0 0.00 0.00 0.00 34 1030.4
20260504180003 25 222 9.7 22.5 0.00 0.00 0.00 36 1030.4
20260504175613 25 217 9.7 22.5 0.00 0.00 0.00 35 1030.4
20260504174713 25 215 12.9 25.7 0.00 0.00 0.00 36 1030.7
20260504173814 25 207 12.9 33.8 0.00 0.00 0.00 34 1030.7
20260504172703 25 221 8.0 22.5 0.00 0.00 0.00 35 1030.8
20260504171803 25 215 8.0 24.1 0.00 0.00 0.00 35 1030.9
20260504171114 24 206 8.0 20.9 0.00 0.00 0.00 35 1031.0
20260504150903 21 200 6.4 16.1 0.00 0.15 0.00 49 1032.9
20260504140903 17 191 9.7 20.9 0.00 0.28 0.00 59 1033.6
20260504100213 7 144 3.2 6.4 0.00 0.28 0.00 83 1034.8
20260504081803 10 184 3.2 6.4 0.00 0.28 0.00 73 1035.0
20260504080903 10 192 1.6 3.2 0.00 0.28 0.00 73 1034.7
20260504080214 10 268 0.0 3.2 0.00 0.28 0.00 73 1034.4
20260504070214 9 174 1.6 4.8 0.00 0.28 0.00 81 1035.5
20260504050003 12 193 4.8 12.9 0.00 0.28 0.00 73 1036.5
20260504045403 12 193 4.8 12.9 0.00 0.28 0.28 73 1036.6
20260504044714 12 186 4.8 8.0 0.00 0.28 0.28 72 1036.5
20260504043603 12 188 6.4 11.3 0.00 0.28 0.28 71 1036.4
20260504042703 12 193 4.8 9.7 0.00 0.28 0.28 71 1036.4
20260504041803 12 193 4.8 8.0 0.00 0.28 0.28 71 1036.4
20260504040903 12 190 4.8 9.7 0.00 0.28 0.28 71 1036.5
20260504040003 12 192 4.8 9.7 0.00 0.28 0.28 70 1036.4
20260504035403 13 193 4.8 9.7 0.00 0.28 0.28 69 1036.4
20260504034503 13 192 4.8 9.7 0.00 0.28 0.28 68 1036.3
20260504033603 13 187 3.2 6.4 0.00 0.28 0.28 68 1036.6
20260504032703 13 183 3.2 6.4 0.00 0.28 0.28 67 1036.3
20260504031803 13 183 3.2 8.0 0.00 0.28 0.28 65 1036.6
20260504030903 13 179 3.2 8.0 0.00 0.28 0.28 65 1036.6
20260504030003 14 184 3.2 8.0 0.00 0.28 0.28 65 1036.6
20260504025614 14 183 3.2 8.0 0.00 0.28 0.28 64 1036.6
20260504024503 15 193 4.8 12.9 0.00 0.28 0.28 63 1036.5
20260504023603 15 192 4.8 9.7 0.00 0.28 0.28 63 1036.6
20260504022703 15 188 4.8 6.4 0.00 0.28 0.28 63 1036.5
20260504021803 15 185 4.8 6.4 0.00 0.28 0.28 63 1036.6
20260504020903 15 186 3.2 8.0 0.00 0.28 0.28 62 1036.4
20260504020214 15 187 4.8 8.0 0.00 0.28 0.28 62 1036.3
20260504015403 15 187 4.8 8.0 0.00 0.28 0.28 62 1036.2
20260504014503 15 193 4.8 9.7 0.00 0.28 0.28 61 1036.2
20260504013603 15 186 4.8 9.7 0.00 0.28 0.28 61 1036.2
20260504012703 16 190 4.8 9.7 0.00 0.28 0.28 60 1036.0
20260504011803 16 193 6.4 11.3 0.00 0.28 0.28 59 1035.9
20260504011114 16 194 6.4 17.7 0.00 0.28 0.28 57 1036.0
20260504010213 17 200 9.7 19.3 0.00 0.28 0.28 55 1035.9
20260504005403 17 197 8.0 20.9 0.00 0.28 0.28 54 1035.7
20260504004503 17 199 6.4 14.5 0.00 0.28 0.28 54 1035.8
20260504003603 18 197 6.4 12.9 0.00 0.28 0.28 54 1035.9
20260504002703 18 200 6.4 12.9 0.00 0.28 0.28 52 1035.7
20260504001803 18 203 6.4 16.1 0.00 0.28 0.28 50 1035.8
20260504000903 19 204 8.0 17.7 0.00 0.28 0.28 49 1035.9
20260504000213 20 204 6.4 22.5 0.00 0.28 0.28 48 1035.8
20260503235403 20 206 9.7 22.5 0.00 0.28 0.28 47 1035.7
20260503234714 20 202 8.0 19.3 0.00 0.28 0.28 46 1035.7
20260503233603 20 210 8.0 24.1 0.00 0.28 0.28 45 1035.7
20260503232912 20 209 9.7 24.1 0.00 0.28 0.28 45 1035.8
20260503231803 20 214 9.7 22.5 0.00 0.28 0.28 44 1035.9
20260503230903 20 216 8.0 27.4 0.00 0.28 0.28 43 1035.9
20260503230003 20 206 9.7 27.4 0.00 0.28 0.28 45 1035.9
20260503225403 20 203 9.7 24.1 0.00 0.28 0.28 44 1036.1
20260503224503 20 213 12.9 32.2 0.00 0.28 0.28 43 1036.1
20260503223603 21 209 9.7 25.7 0.00 0.28 0.28 45 1036.1
20260503222703 21 242 8.0 24.1 0.00 0.28 0.28 43 1035.9
20260503221803 21 208 11.3 33.8 0.00 0.28 0.28 42 1036.1
20260503220903 20 211 11.3 33.8 0.00 0.28 0.28 43 1036.3
20260503220003 20 217 11.3 29.0 0.00 0.28 0.28 43 1036.4
20260503215403 20 210 12.9 29.0 0.00 0.28 0.28 43 1036.2